TimeCDT,TemperatureF,Dew PointF,Humidity,Sea Level PressureIn,VisibilityMPH,Wind Direction,Wind SpeedMPH,Gust SpeedMPH,PrecipitationIn,Events,Conditions,WindDirDegrees,DateUTC
12:15 AM,42.8,33.8,70,29.80,10.0,SSW,8.1,16.1,N/A,Rain,Light Rain,200,2013-10-19 05:15:00
12:36 AM,42.8,35.6,76,29.79,10.0,South,5.8,-,N/A,,Light Drizzle,190,2013-10-19 05:36:00
12:55 AM,42.8,33.8,70,29.78,10.0,SSW,3.5,-,N/A,,Mostly Cloudy,210,2013-10-19 05:55:00
1:16 AM,42.8,33.8,70,29.78,10.0,SSW,4.6,-,N/A,,Scattered Clouds,200,2013-10-19 06:16:00
1:35 AM,41.0,33.8,76,29.77,10.0,SSW,3.5,-,N/A,,Clear,210,2013-10-19 06:35:00
1:55 AM,41.0,33.8,76,29.76,10.0,SSW,3.5,-,N/A,,Scattered Clouds,200,2013-10-19 06:55:00
2:15 AM,39.2,33.8,81,29.77,10.0,SW,3.5,-,N/A,,Mostly Cloudy,220,2013-10-19 07:15:00
2:35 AM,39.2,32.0,75,29.76,10.0,SSW,3.5,-,N/A,,Scattered Clouds,210,2013-10-19 07:35:00
2:56 AM,39.2,32.0,75,29.75,10.0,Calm,Calm,-,N/A,,Clear,0,2013-10-19 07:56:00
3:15 AM,37.4,32.0,81,29.75,10.0,SSW,3.5,-,N/A,,Clear,200,2013-10-19 08:15:00
3:36 AM,37.4,32.0,81,29.73,10.0,Calm,Calm,-,N/A,,Clear,0,2013-10-19 08:36:00
3:55 AM,37.4,32.0,81,29.73,10.0,Calm,Calm,-,N/A,,Scattered Clouds,0,2013-10-19 08:55:00
4:15 AM,39.2,32.0,75,29.72,10.0,South,4.6,-,N/A,,Overcast,170,2013-10-19 09:15:00
4:35 AM,39.2,32.0,75,29.71,10.0,South,4.6,-,N/A,,Overcast,180,2013-10-19 09:35:00
4:55 AM,39.2,32.0,75,29.71,10.0,South,3.5,-,N/A,,Overcast,190,2013-10-19 09:55:00
5:16 AM,39.2,32.0,75,29.70,10.0,South,3.5,-,N/A,Rain,Rain,180,2013-10-19 10:16:00
5:35 AM,39.2,33.8,81,29.70,7.0,Calm,Calm,-,N/A,Rain,Rain,0,2013-10-19 10:35:00
5:56 AM,39.2,33.8,81,29.69,7.0,South,4.6,-,N/A,Rain,Light Rain,170,2013-10-19 10:56:00
6:15 AM,39.2,33.8,81,29.69,5.0,SSW,3.5,-,N/A,Rain,Light Rain,200,2013-10-19 11:15:00
6:35 AM,39.2,33.8,81,29.68,7.0,SSE,4.6,-,0.01,Rain,Light Rain,160,2013-10-19 11:35:00
6:56 AM,39.2,32.0,75,29.68,7.0,SSW,3.5,-,N/A,,Overcast,200,2013-10-19 11:56:00
7:15 AM,39.2,33.8,81,29.68,5.0,South,3.5,-,N/A,,Drizzle,190,2013-10-19 12:15:00
7:36 AM,39.2,33.8,81,29.68,5.0,SSW,4.6,-,0.01,Rain,Light Rain,200,2013-10-19 12:36:00
7:55 AM,39.2,33.8,81,29.68,7.0,SSW,3.5,-,0.01,,Light Drizzle,210,2013-10-19 12:55:00
9:15 AM,39.2,33.8,81,29.67,10.0,WSW,3.5,-,N/A,,Overcast,240,2013-10-19 14:15:00
9:35 AM,39.2,33.8,81,29.67,10.0,WSW,4.6,-,N/A,,Overcast,250,2013-10-19 14:35:00
9:55 AM,39.2,33.8,81,29.68,10.0,West,5.8,-,N/A,,Overcast,270,2013-10-19 14:55:00
10:16 AM,41.0,33.8,76,29.67,10.0,West,6.9,-,N/A,,Overcast,280,2013-10-19 15:16:00
10:35 AM,41.0,33.8,76,29.68,10.0,West,6.9,-,N/A,,Overcast,280,2013-10-19 15:35:00
10:55 AM,42.8,33.8,70,29.68,10.0,West,6.9,-,N/A,,Overcast,270,2013-10-19 15:55:00
11:16 AM,42.8,33.8,70,29.67,10.0,West,5.8,-,N/A,,Mostly Cloudy,280,2013-10-19 16:16:00
11:35 AM,42.8,33.8,70,29.68,10.0,WNW,5.8,-,N/A,,Overcast,290,2013-10-19 16:35:00
11:55 AM,42.8,33.8,70,29.68,10.0,WNW,5.8,-,N/A,,Overcast,300,2013-10-19 16:55:00
12:15 PM,42.8,33.8,70,29.67,10.0,West,5.8,-,N/A,,Overcast,260,2013-10-19 17:15:00
12:35 PM,44.6,33.8,66,29.67,10.0,WNW,3.5,-,N/A,,Overcast,300,2013-10-19 17:35:00
12:56 PM,44.6,33.8,66,29.68,10.0,WNW,3.5,-,N/A,,Overcast,300,2013-10-19 17:56:00
1:15 PM,44.6,33.8,66,29.67,10.0,WNW,6.9,-,N/A,,Overcast,300,2013-10-19 18:15:00
1:36 PM,46.4,33.8,62,29.67,10.0,West,5.8,-,N/A,,Scattered Clouds,270,2013-10-19 18:36:00
1:55 PM,46.4,33.8,62,29.67,10.0,West,4.6,-,N/A,,Scattered Clouds,280,2013-10-19 18:55:00
2:15 PM,46.4,33.8,62,29.67,10.0,West,5.8,-,N/A,,Scattered Clouds,270,2013-10-19 19:15:00
2:35 PM,46.4,33.8,62,29.67,10.0,WNW,8.1,-,N/A,,Scattered Clouds,290,2013-10-19 19:35:00
2:55 PM,46.4,33.8,62,29.67,10.0,WNW,5.8,-,N/A,,Mostly Cloudy,300,2013-10-19 19:55:00
3:16 PM,50.0,33.8,54,29.67,10.0,WNW,9.2,18.4,N/A,,Mostly Cloudy,290,2013-10-19 20:16:00
3:35 PM,48.2,33.8,58,29.68,10.0,NW,6.9,-,N/A,,Mostly Cloudy,320,2013-10-19 20:35:00
3:55 PM,46.4,32.0,57,29.68,10.0,NNW,8.1,-,N/A,,Mostly Cloudy,330,2013-10-19 20:55:00
4:15 PM,48.2,33.8,58,29.69,10.0,NW,3.5,-,N/A,,Scattered Clouds,310,2013-10-19 21:15:00
4:35 PM,46.4,33.8,62,29.70,10.0,WNW,9.2,17.3,N/A,Rain,Light Rain,300,2013-10-19 21:35:00
4:56 PM,44.6,33.8,66,29.70,10.0,WNW,3.5,-,N/A,,Overcast,290,2013-10-19 21:56:00
5:15 PM,44.6,33.8,66,29.71,10.0,WNW,3.5,-,N/A,,Overcast,290,2013-10-19 22:15:00
5:36 PM,46.4,32.0,57,29.71,10.0,WNW,5.8,-,N/A,,Scattered Clouds,290,2013-10-19 22:36:00
5:55 PM,44.6,30.2,57,29.72,10.0,West,4.6,-,N/A,,Clear,270,2013-10-19 22:55:00
6:15 PM,42.8,30.2,61,29.72,10.0,West,3.5,-,N/A,,Clear,270,2013-10-19 23:15:00
6:36 PM,42.8,30.2,61,29.72,10.0,West,3.5,-,N/A,,Clear,260,2013-10-19 23:36:00
6:55 PM,42.8,32.0,66,29.73,10.0,West,5.8,-,N/A,,Clear,260,2013-10-19 23:55:00
7:15 PM,41.0,32.0,70,29.74,10.0,West,5.8,-,N/A,,Clear,270,2013-10-20 00:15:00
7:35 PM,41.0,32.0,70,29.74,10.0,West,8.1,-,N/A,,Clear,280,2013-10-20 00:35:00
7:55 PM,39.2,32.0,75,29.75,10.0,West,5.8,-,N/A,,Clear,280,2013-10-20 00:55:00
8:16 PM,39.2,32.0,75,29.75,10.0,West,4.6,-,N/A,,Clear,280,2013-10-20 01:16:00
8:35 PM,39.2,30.2,70,29.76,10.0,West,3.5,-,N/A,,Clear,260,2013-10-20 01:35:00
8:55 PM,37.4,30.2,75,29.76,10.0,West,3.5,-,N/A,,Clear,270,2013-10-20 01:55:00
9:16 PM,37.4,30.2,75,29.77,10.0,West,4.6,-,N/A,,Clear,280,2013-10-20 02:16:00
9:35 PM,37.4,30.2,75,29.77,10.0,West,3.5,-,N/A,,Clear,270,2013-10-20 02:35:00
9:56 PM,37.4,30.2,75,29.77,10.0,Calm,Calm,-,N/A,,Clear,0,2013-10-20 02:56:00
10:15 PM,37.4,28.4,70,29.77,10.0,Calm,Calm,-,N/A,,Clear,0,2013-10-20 03:15:00
10:35 PM,35.6,28.4,75,29.77,10.0,Calm,Calm,-,N/A,,Clear,0,2013-10-20 03:35:00
10:55 PM,35.6,28.4,75,29.77,10.0,West,3.5,-,N/A,,Clear,260,2013-10-20 03:55:00
11:15 PM,35.6,28.4,75,29.77,10.0,Calm,Calm,-,N/A,,Clear,0,2013-10-20 04:15:00
11:36 PM,35.6,28.4,75,29.77,10.0,West,3.5,-,N/A,,Clear,280,2013-10-20 04:36:00
11:55 PM,35.6,28.4,75,29.77,10.0,Calm,Calm,-,N/A,,Clear,0,2013-10-20 04:55:00